Location: Ethel Rock
(53.4667°N, 4.5667°W)
Time: 01:19:28
(UTC+00:00)

Cosmos 2237 Rocket - Pass Details

Date: 24 October 2020
Orbit: 835 x 849 km, 71.0° (Epoch: 26 November)

Event Time Altitude Azimuth Distance (km) Brightness Sun altitude
Exits shadow 03:32:20 18° 345° (NNW) 1,954 4.1 -31.4°
Drops below altitude 10° 03:35:27 10° 19° (NNE) 2,462 5.1 -30.9°
Sets 03:38:43 0° 38° (NE) 3,401 6.2 -30.5°
